Location: Lombard
(41.8800°N, 88.0080°W)
Time: 05:36:31
(UTC-05:00)

Vanguard 2 Rocket - Pass Details

Date: 28 February 2024
Orbit: 555 x 3307 km, 32.9° (Epoch: 12 April)

Event Time Altitude Azimuth Distance (km) Brightness Sun altitude
Rises 13:05:14 0° 230° (SW) 3,613 10.7 38.3°
Reaches altitude 10° 13:07:32 10° 222° (SW) 2,922 10.6 38.1°
Maximum altitude 13:14:17 39° 155° (SSE) 2,143 9.8 37.7°
Drops below altitude 10° 13:25:32 10° 93° (E) 4,876 10.5 36.9°
Sets 13:30:39 0° 88° (E) 6,327 11.0 36.4°
